Location: Kellogg
(38.0159°N, 90.0546°W)
Time: 07:29:26
(UTC+00:00)

Vanguard 1 Rocket - Pass Details

Date: 21 September 2024
Orbit: 650 x 4218 km, 34.3° (Epoch: 05 October)

Event Time Altitude Azimuth Distance (km) Brightness Sun altitude
Rises 07:46:54 0° 233° (SW) 4,331 - -43.5°
Reaches altitude 10° 07:49:16 10° 229° (SW) 3,663 - -43.2°
Maximum altitude 07:59:03 58° 153° (SSE) 2,599 - -41.8°
Exits shadow 07:59:29 58° 146° (SE) 2,641 9.4 -41.8°
Drops below altitude 10° 08:18:05 10° 81° (E) 6,714 12.3 -39.1°
Sets 08:24:20 0° 79° (ENE) 8,110 13.0 -38.1°
